Hourly Data Report for October 25, 2012

All times are specified in Local Standard Time (LST). Add 1 hour to adjust for Daylight Saving Time where and when it is observed.

KITCHENER/WATERLOO
ONTARIO

43°27'39.000" N
80°22'43.000" W
321.60 m
6144239
71368
YKF

Download Data

Hourly Data (October 2012)
Hourly Data Report for October 25, 2012
Temp Definition
°C
Dew Point Temp Definition
°C
Rel Hum Definition
%
Wind Dir Definition
10's deg

Wind Spd Definition
km/h
Visibility Definition
km
Stn Press Definition
kPa
Hmdx Definition


Wind Chill Definition


Weather Definition


TIME
00:00 Legend Double Dagger 10.6 10.5 99 10 11 0.6 98.01     LegendNANA
01:00 Legend Double Dagger 10.8 10.7 99 10 8 0.6 97.99     LegendNANA
02:00 Legend Double Dagger 10.8 10.7 99 7 5 0.6 98.00     LegendNANA
03:00 Legend Double Dagger 10.8 10.7 99 8 5 0.6 98.00     LegendNANA
04:00 Legend Double Dagger 10.6 10.5 99 12 8 0.6 97.96     LegendNANA
05:00 Legend Double Dagger 10.5 10.4 99 11 9 0.6 97.98     LegendNANA
06:00 Legend Double Dagger 10.4 10.3 99 12 8 0.4 97.97     LegendNANA
07:00 Legend Double Dagger 10.3 10.2 99 12 8 0.0 97.94     LegendNANA
08:00 Legend Double Dagger 10.5 10.4 99 15 5 0.0 97.96     LegendNANA
09:00 Legend Double Dagger 11.6 11.5 99 14 8 2.8 98.00     LegendNANA
10:00 Legend Double Dagger 15.1 13.3 89 15 11 14.5 97.95     LegendNANA
11:00 Legend Double Dagger 19.0 12.9 67 19 15 16.1 97.93     LegendNANA
12:00 Legend Double Dagger 21.1 13.9 63 17 18 16.1 97.86     LegendNANA
13:00 Legend Double Dagger 23.1 12.2 50 18 26 16.1 97.79 25   LegendNANA
14:00 Legend Double Dagger 23.8 9.9 41 18 24 16.1 97.75 25   LegendNANA
15:00 Legend Double Dagger 23.7 8.5 38 18 28 16.1 97.70     LegendNANA
16:00 Legend Double Dagger 23.1 9.7 42 19 24 16.1 97.67     LegendNANA
17:00 Legend Double Dagger 21.5 9.5 46 16 17 16.1 97.64     LegendNANA
18:00 Legend Double Dagger 17.8 10.0 60 14 15 16.1 97.60     LegendNANA
19:00 Legend Double Dagger 17.3 11.0 66 14 21 16.1 97.59     LegendNANA
20:00 Legend Double Dagger 15.9 10.7 71 15 15 16.1 97.57     LegendNANA
21:00 Legend Double Dagger 13.8 9.9 77 14 11 16.1 97.55     LegendNANA
22:00 Legend Double Dagger 14.4 9.5 72 18 9 16.1 97.54     LegendNANA
23:00 Legend Double Dagger 14.9 9.6 70 18 9 16.1 97.55     LegendNANA

Notes on Data Quality.

Legend

  • E = Estimated
  • M = Missing
  • NA = Not Available
  • ‡ = Partner data that is not subject to review by the National Climate Archives
Date modified: